Acatitlan, Mexico

7:19 PM CDT on June 27, 2017 (GMT -0500)
Lic Gustavo Diaz Ordaz International | | Change Station

Elev 20 ft 20.68 °N, 105.25 °W | Updated 33 minutes ago

Rain
Rain
84 °F
Feels Like 96 °F
N
12
Wind Variable Wind from SW

Today
High -- | Low -- °F
--% Chance of Precip.
Yesterday
High -- | Low -- °F
Precip. -- in
Pressure 29.81 in
Visibility 12.0 miles
Clouds Scattered Clouds 2500 ft
Mostly Cloudy 8000 ft
Overcast 25000 ft
Heat Index 96 °F
Dew Point 79 °F
Humidity 84%
Rainfall 0.00 in
Snow Depth Not available.
7:20 AM 8:42 PM
Waxing Crescent, 20% visible
METAR MMPR 272346Z 23010KT 12SM SCT025CB BKN080 OVC250 29/26 A2981 RMK SLP094 57008 954 8/363 DSNT PCPN N-NE
Pressure 29.81 in
Visibility 12.0 miles
Clouds Scattered Clouds 2500 ft
Mostly Cloudy 8000 ft
Overcast 25000 ft
Heat Index 96 °F
Dew Point 79 °F
Humidity 84%
Rainfall 0.00 in
Snow Depth Not available.
7:20 AM 8:42 PM
Waxing Crescent, 20% visible
METAR MMPR 272346Z 23010KT 12SM SCT025CB BKN080 OVC250 29/26 A2981 RMK SLP094 57008 954 8/363 DSNT PCPN N-NE

Get Severe Weather Alerts

Thanks for signing up!

Be on the lookout for a verification email in your inbox.

You'll start receiving the daily forecast at 6 AM.

×

10-Day Weather Forecast

No radar image for this location.
×

Almanac

Astronomy

Jun. 27, 2017 Rise Set
Actual Time
Civil Twilight
Nautical Twilight
Astronomical Twilight
Moon
Length of Visible Light
Length of Day
Tomorrow will be .
, % of the Moon is Illuminated

Today's Extremes

Country Highs Country Lows

Community

WunderPhotos

Category 6

Welcome to Category 6. This is the collective home for Weather Underground's featured writeups by Dr. Jeff Masters (right), Bob Henson (left), Chris Burt, and other regular contributors.

Nearby

Air Quality

  Air Quality AQ Index Pollutant
Not available.

Snow Depth

Station Depth Elevation

Earthquake Activity

City Distance Mag. Time & Date
Minimum magnitude displayed is 2.5.

Coastal Water Temperatures

Place Temperature

Stations

Nearby Weather Stations

Station Location Temp. Windchill Dew Point Humidity Wind Precip. Elev Updated Type